Regional Weather Roundup
Issued by NWS

Home | Current Version | Previous Version | Text Only | Print | Product List | Glossary Off
Versions: 1 2 3 4 5 6 7 8 9 10 11 12 13 14 15 16 17 18 19 20 21 22 23 24 25 26 27 28 29 30 31 32 33 34 35 36 37 38 39 40 41 42 43 44 45 46 47 48 49 50

000
ASUS45 KSLC 022210
RWRUT

UTAH REGIONAL WEATHER ROUNDUP
NATIONAL WEATHER SERVICE SALT LAKE CITY UT
300 PM MST MON MAR 02 2015

UTZ001>011-023>025-022300-

NORTHERN UTAH

CITY           SKY/WX    TMP DP  RH WIND       PRES   REMARKS
BRIGHAM CITY   CLOUDY    38  32  77 W3        29.67S
HILL AFB       LGT RAIN  36  36 100 N7        29.65F FOG     WCI  30
LOGAN          CLOUDY    41  25  53 NE8       29.65F
OGDEN          LGT RAIN  36  34  92 N5        29.66R FOG     WCI  32
PROVO AIRPORT  CLOUDY    41  36  81 CALM      29.67F
SALT LAKE CITY CLOUDY    41  34  76 NW7       29.65F
VERNAL         LGT SNOW  33  31  92 SW6       29.68R FOG     WCI  28
WENDOVER       CLOUDY    36  32  87 S3        29.69F
HEBER CITY     MIX PCPN  34  32  93 CALM      29.66F
WEST JORDAN    CLOUDY    39  37  93 S17G23    29.65F WCI  30

$$

UTZ012>022-026-027-022300-

SOUTHERN/CENTRAL UTAH

CITY           SKY/WX    TMP DP  RH WIND       PRES   REMARKS
BLANDING       CLOUDY    38  36  93 W17G24    29.80R WCI  28
BRYCE CANYON   CLOUDY    30  28  92 SE14      29.70S FOG     WCI  19
CEDAR CITY     FLURRIES  35  32  88 SW24G32   29.68R WCI  23
DELTA          CLOUDY    40  37  89 S14       29.64F WCI  32
HANKSVILLE     PTSUNNY   41  37  87 CALM      29.73R
MILFORD        MIX PCPN  36  32  85 S15       29.66R WCI  27
MOAB/CYNLANDS  LGT RAIN  40  39  97 W6        29.66F
PRICE          CLOUDY    34  32  92 CALM      29.65F FOG
ST GEORGE      CLOUDY    50  37  62 W7        29.78R
KANAB          CLOUDY    36  36 100 CALM      29.82R

$$

REGIONAL REPORTS     COLORADO/ARIZONA

CITY           SKY/WX    TMP DP  RH WIND       PRES   REMARKS
CRAIG, CO      CLOUDY    45  34  65 SW12G22   29.62F
GRAND JUNCTION PTSUNNY   54  35  48 S20G30    29.61F
RIFLE          CLOUDY    41  37  86 W10       29.63F
MONTROSE       NOT AVBL
CORTEZ         CLOUDY    50  33  52 S14       29.71F
PAGE, AZ       LGT RAIN  43  38  82 E7        29.75F
GRAND CANYON   SNOW      31  30  96 SW14      29.81S VSB 1/2 WCI  21
KINGMAN        PTSUNNY   48  41  76 SW16      29.84S
FLAGSTAFF      SNOW      29  26  89 SW22      29.84S VSB 1/4 WCI  15

$$

REGIONAL REPORTS    NEVADA/IDAHO/WYOMING

CITY           SKY/WX    TMP DP  RH WIND       PRES   REMARKS
LAS VEGAS, NV  PTSUNNY   58  32  37 SW22G29   29.73S
ELY            SNOW      29  28  96 N9        29.67R VSB 1/4 WCI  20
ELKO           CLOUDY    41  27  57 NW9       29.68R
POCATELLO, ID  PTSUNNY   42  22  44 CALM      29.67F
BURLEY         MOSUNNY   47  17  30 N6        29.64F
EVANSTON, WY   CLOUDY    31  24  75 VRB3      29.63F
ROCK SPRINGS   LGT SNOW  31  29  92 N5        29.63F VSB 1   WCI  26
KEMMERER       CLOUDY    32  27  80 E7        29.64S WCI  26

$$



USA.gov is the U.S. government's official web portal to all federal, state and local government web resources and services.